Total_Precipitation_Accumulation
0.31 0.37 0.49 0.71 0.82 0.66 0.61 0.47 0.40 0.27 0.22 0.19 0.21 0.70 0.63 0.03 0.01 0.00 0.00 0.00 0.00 0.00 0.00 0.00 0.00 0.00 0.00 0.00 0.00 0.00 0.00 0.00 0.00 0.00 0.00 0.00 0.00 0.00 0.00 0.00 0.00 0.00 0.00 0.00 0.01
0.39 0.52 0.78 1.03 1.23 1.14 0.79 0.30 0.25 0.17 0.17 0.19 0.33 0.54 0.81 0.08 0.00 0.00 0.00 0.00 0.00 0.00 0.00 0.00 0.00 0.00 0.00 0.00 0.00 0.00 0.00 0.00 0.00 0.00 0.00 0.00 0.00 0.00 0.00 0.00 0.00 0.00 0.00 0.00 0.01
0.54 0.50 0.66 0.89 1.32 1.97 1.43 0.35 0.16 0.10 0.14 0.20 0.24 0.80 0.94 0.22 0.01 0.00 0.00 0.00 0.00 0.00 0.00 0.00 0.00 0.00 0.00 0.00 0.00 0.00 0.00 0.00 0.00 0.00 0.00 0.00 0.00 0.00 0.00 0.00 0.00 0.00 0.00 0.00 0.00
0.54 0.47 0.42 0.46 0.72 1.29 1.38 0.39 0.27 0.16 0.10 0.15 0.46 1.04 1.25 0.54 0.22 0.00 0.00 0.01 0.00 0.00 0.00 0.00 0.00 0.00 0.00 0.00 0.00 0.00 0.00 0.00 0.00 0.00 0.00 0.00 0.00 0.00 0.00 0.00 0.00 0.00 0.00 0.00 0.00
0.41 0.42 0.29 0.43 0.49 0.72 0.50 0.41 0.32 0.34 0.23 0.20 0.67 1.28 0.95 0.85 0.39 0.02 0.07 0.03 0.00 0.00 0.00 0.00 0.00 0.00 0.00 0.00 0.00 0.00 0.00 0.00 0.00 0.00 0.00 0.00 0.00 0.00 0.00 0.00 0.00 0.00 0.00 0.00 0.00
0.32 0.25 0.18 0.19 0.34 0.26 0.11 0.22 0.25 0.18 0.17 0.39 0.92 1.22 0.66 0.78 0.39 0.09 0.08 0.00 0.00 0.00 0.00 0.00 0.00 0.00 0.00 0.00 0.00 0.00 0.00 0.00 0.00 0.00 0.00 0.00 0.00 0.00 0.00 0.00 0.00 0.00 0.00 0.00 0.00
0.21 0.19 0.20 0.25 0.27 0.20 0.18 0.19 0.11 0.13 0.21 0.53 0.77 1.04 0.89 0.83 0.41 0.35 0.06 0.00 0.00 0.00 0.00 0.00 0.00 0.00 0.00 0.00 0.00 0.00 0.00 0.00 0.00 0.00 0.00 0.00 0.00 0.00 0.00 0.00 0.00 0.00 0.00 0.00 0.00
0.21 0.16 0.18 0.25 0.28 0.27 0.19 0.09 0.05 0.09 0.32 0.92 1.21 0.78 1.25 0.82 0.44 0.34 0.01 0.00 0.00 0.00 0.00 0.00 0.00 0.00 0.00 0.00 0.00 0.00 0.00 0.00 0.00 0.00 0.00 0.00 0.00 0.00 0.00 0.00 0.00 0.00 0.00 0.00 0.00
0.19 0.27 0.33 0.31 0.23 0.25 0.18 0.52 0.35 0.24 0.45 1.01 0.97 0.78 1.27 0.97 0.48 0.15 0.00 0.00 0.00 0.00 0.00 0.00 0.00 0.00 0.00 0.00 0.00 0.00 0.00 0.00 0.00 0.00 0.00 0.00 0.00 0.00 0.00 0.00 0.00 0.00 0.00 0.00 0.00
0.32 0.68 0.62 0.30 0.30 0.29 0.20 0.98 1.20 0.34 0.78 0.70 0.68 0.74 1.08 0.83 0.31 0.07 0.00 0.00 0.00 0.02 0.02 0.01 0.01 0.00 0.00 0.00 0.00 0.00 0.02 0.00 0.00 0.00 0.00 0.00 0.00 0.00 0.00 0.01 0.00 0.00 0.00 0.01 0.00
0.24 0.47 0.34 0.22 0.11 0.12 0.08 0.50 0.80 0.87 1.13 0.81 0.47 0.32 0.51 0.49 0.11 0.03 0.00 0.00 0.00 0.02 0.01 0.01 0.00 0.00 0.00 0.00 0.00 0.00 0.00 0.00 0.00 0.00 0.00 0.00 0.00 0.00 0.00 0.06 0.02 0.01 0.02 0.01 0.01
0.12 0.20 0.16 0.16 0.18 0.13 0.05 0.27 0.49 1.01 1.71 1.19 0.55 0.37 0.45 0.19 0.07 0.00 0.00 0.00 0.00 0.00 0.01 0.02 0.00 0.00 0.00 0.00 0.00 0.01 0.03 0.01 0.00 0.04 0.01 0.00 0.00 0.00 0.00 0.06 0.04 0.02 0.00 0.00 0.03
0.04 0.05 0.03 0.01 0.04 0.07 0.12 0.33 0.62 0.37 0.86 1.31 0.88 0.66 0.48 0.11 0.03 0.00 0.00 0.00 0.00 0.00 0.00 0.00 0.00 0.00 0.00 0.01 0.03 0.01 0.01 0.00 0.01 0.02 0.00 0.00 0.00 0.00 0.00 0.00 0.00 0.00 0.00 0.00 0.03
0.01 0.03 0.02 0.01 0.01 0.06 0.16 0.20 0.18 0.05 0.23 0.88 0.47 0.37 0.14 0.03 0.00 0.00 0.00 0.00 0.00 0.00 0.00 0.00 0.00 0.00 0.00 0.01 0.03 0.01 0.00 0.01 0.02 0.10 0.08 0.10 0.11 0.01 0.00 0.00 0.00 0.00 0.00 0.00 0.06
0.01 0.01 0.01 0.01 0.03 0.09 0.08 0.12 0.01 0.01 0.15 0.37 0.16 0.05 0.02 0.00 0.00 0.00 0.00 0.00 0.00 0.00 0.00 0.00 0.01 0.00 0.00 0.00 0.01 0.00 0.00 0.00 0.01 0.09 0.21 0.15 0.30 0.04 0.02 0.00 0.00 0.00 0.00 0.03 0.10
0.02 0.01 0.01 0.00 0.00 0.02 0.00 0.01 0.00 0.02 0.28 0.15 0.07 0.06 0.00 0.00 0.00 0.00 0.00 0.00 0.00 0.00 0.00 0.00 0.00 0.00 0.00 0.00 0.01 0.00 0.00 0.00 0.01 0.11 0.36 0.13 0.26 0.19 0.14 0.14 0.03 0.03 0.05 0.11 0.13
0.00 0.00 0.00 0.01 0.02 0.00 0.00 0.00 0.02 0.14 0.15 0.07 0.04 0.00 0.00 0.00 0.00 0.00 0.00 0.00 0.00 0.00 0.00 0.00 0.00 0.00 0.00 0.00 0.00 0.01 0.05 0.08 0.17 0.32 0.21 0.16 0.31 0.30 0.29 0.17 0.13 0.22 0.26 0.20 0.19
0.00 0.00 0.00 0.00 0.02 0.00 0.00 0.01 0.18 0.23 0.06 0.00 0.00 0.00 0.01 0.01 0.00 0.00 0.00 0.00 0.00 0.00 0.01 0.01 0.02 0.00 0.00 0.00 0.01 0.02 0.08 0.31 0.29 0.26 0.25 0.16 0.38 0.58 0.62 0.42 0.50 0.45 0.61 0.87 0.94
0.00 0.00 0.00 0.00 0.00 0.00 0.00 0.06 0.16 0.07 0.02 0.00 0.00 0.00 0.00 0.00 0.00 0.00 0.00 0.00 0.00 0.00 0.04 0.02 0.00 0.00 0.00 0.00 0.00 0.02 0.18 0.40 0.54 0.36 0.27 0.32 0.53 0.79 0.92 0.90 0.68 1.16 1.26 1.27 1.38
0.00 0.00 0.00 0.00 0.00 0.00 0.01 0.09 0.04 0.00 0.00 0.00 0.01 0.00 0.00 0.00 0.00 0.00 0.00 0.01 0.04 0.01 0.01 0.02 0.04 0.01 0.00 0.00 0.00 0.03 0.15 0.26 0.29 0.30 0.35 0.27 0.45 1.36 1.45 1.14 1.05 1.16 1.20 1.23 1.51
0.00 0.00 0.00 0.00 0.00 0.00 0.01 0.05 0.00 0.00 0.00 0.01 0.01 0.00 0.00 0.00 0.02 0.08 0.09 0.06 0.04 0.11 0.07 0.14 0.13 0.04 0.00 0.00 0.02 0.10 0.18 0.09 0.09 0.08 0.19 0.15 0.70 1.37 1.36 1.08 0.88 0.85 0.89 0.91 0.96
0.00 0.00 0.00 0.00 0.00 0.00 0.00 0.00 0.00 0.00 0.00 0.00 0.00 0.00 0.00 0.01 0.03 0.10 0.09 0.06 0.02 0.06 0.07 0.05 0.04 0.00 0.00 0.00 0.00 0.02 0.02 0.02 0.06 0.10 0.04 0.08 0.69 0.96 0.91 0.78 0.60 0.45 0.28 0.17 0.11
0.00 0.00 0.00 0.00 0.00 0.00 0.00 0.00 0.00 0.00 0.00 0.00 0.00 0.00 0.00 0.00 0.00 0.01 0.01 0.01 0.00 0.00 0.00 0.00 0.01 0.00 0.00 0.00 0.00 0.00 0.00 0.00 0.01 0.02 0.01 0.04 0.36 0.25 0.24 0.20 0.13 0.02 0.01 0.01 0.00
0.00 0.00 0.00 0.00 0.00 0.00 0.00 0.00 0.00 0.00 0.00 0.00 0.00 0.00 0.00 0.00 0.00 0.00 0.00 0.00 0.00 0.00 0.00 0.00 0.00 0.00 0.00 0.00 0.00 0.00 0.00 0.00 0.00 0.00 0.00 0.01 0.03 0.03 0.02 0.00 0.00 0.00 0.00 0.00 0.00
0.00 0.00 0.00 0.00 0.00 0.00 0.00 0.00 0.00 0.00 0.00 0.00 0.00 0.00 0.00 0.00 0.00 0.00 0.00 0.00 0.00 0.00 0.00 0.00 0.00 0.00 0.00 0.00 0.00 0.00 0.00 0.00 0.00 0.00 0.00 0.00 0.00 0.00 0.00 0.00 0.00 0.00 0.00 0.00 0.00
0.00 0.00 0.00 0.00 0.00 0.00 0.00 0.00 0.00 0.00 0.00 0.00 0.00 0.00 0.00 0.00 0.00 0.00 0.00 0.00 0.00 0.00 0.00 0.00 0.00 0.00 0.00 0.00 0.00 0.00 0.00 0.00 0.00 0.00 0.00 0.00 0.00 0.00 0.00 0.00 0.00 0.00 0.00 0.00 0.00
0.00 0.00 0.00 0.00 0.00 0.00 0.00 0.00 0.00 0.00 0.00 0.00 0.00 0.00 0.00 0.00 0.00 0.00 0.00 0.00 0.00 0.00 0.00 0.00 0.00 0.00 0.00 0.00 0.00 0.00 0.00 0.00 0.00 0.00 0.00 0.00 0.00 0.00 0.00 0.00 0.00 0.00 0.00 0.00 0.00